TimeEDT,TemperatureF,Dew PointF,Humidity,Sea Level PressureIn,VisibilityMPH,Wind Direction,Wind SpeedMPH,Gust SpeedMPH,PrecipitationIn,Events,Conditions,WindDirDegrees,DateUTC
12:53 AM,51.1,44.1,77,30.13,10.0,Calm,Calm,-,N/A,,Clear,0,2012-04-07 04:53:00
1:53 AM,48.9,43.0,80,30.14,10.0,Calm,Calm,-,N/A,,Clear,0,2012-04-07 05:53:00
2:53 AM,48.2,42.8,82,30.14,10.0,Calm,Calm,-,N/A,,Clear,0,2012-04-07 06:53:00
3:53 AM,50.0,41.0,71,30.14,10.0,Calm,Calm,-,N/A,,Clear,0,2012-04-07 07:53:00
4:53 AM,50.0,39.0,66,30.15,10.0,NNE,4.6,-,N/A,,Clear,30,2012-04-07 08:53:00
5:53 AM,50.0,37.0,61,30.17,10.0,NNE,4.6,-,N/A,,Clear,30,2012-04-07 09:53:00
6:53 AM,48.9,37.0,64,30.20,10.0,NE,4.6,-,N/A,,Clear,50,2012-04-07 10:53:00
7:53 AM,50.0,37.0,61,30.24,10.0,Calm,Calm,-,N/A,,Partly Cloudy,0,2012-04-07 11:53:00
8:53 AM,53.1,37.0,55,30.26,10.0,NNE,5.8,-,N/A,,Partly Cloudy,30,2012-04-07 12:53:00
9:53 AM,55.9,36.0,47,30.27,10.0,Calm,Calm,-,N/A,,Partly Cloudy,0,2012-04-07 13:53:00
10:53 AM,59.0,39.9,49,30.27,10.0,West,3.5,-,N/A,,Partly Cloudy,270,2012-04-07 14:53:00
11:53 AM,62.1,45.0,53,30.27,10.0,SSW,5.8,-,N/A,,Scattered Clouds,210,2012-04-07 15:53:00
12:53 PM,66.0,46.0,48,30.23,10.0,Calm,Calm,-,N/A,,Partly Cloudy,0,2012-04-07 16:53:00
1:53 PM,68.0,43.0,40,30.22,10.0,Calm,Calm,-,N/A,,Scattered Clouds,0,2012-04-07 17:53:00
2:53 PM,71.1,39.9,32,30.20,10.0,Calm,Calm,-,N/A,,Scattered Clouds,0,2012-04-07 18:53:00
3:53 PM,73.0,37.9,28,30.17,10.0,Calm,Calm,-,N/A,,Scattered Clouds,0,2012-04-07 19:53:00
4:53 PM,73.0,33.1,23,30.16,10.0,Calm,Calm,-,N/A,,Scattered Clouds,0,2012-04-07 20:53:00
5:53 PM,73.9,35.1,24,30.16,10.0,Calm,Calm,-,N/A,,Scattered Clouds,0,2012-04-07 21:53:00
6:53 PM,73.0,37.0,27,30.16,10.0,Calm,Calm,-,N/A,,Scattered Clouds,0,2012-04-07 22:53:00
7:53 PM,71.1,37.9,30,30.16,10.0,Calm,Calm,-,N/A,,Mostly Cloudy,0,2012-04-07 23:53:00
8:53 PM,64.9,45.0,48,30.17,10.0,Calm,Calm,-,N/A,,Mostly Cloudy,0,2012-04-08 00:53:00
9:53 PM,63.0,46.9,56,30.19,10.0,Calm,Calm,-,N/A,,Mostly Cloudy,0,2012-04-08 01:53:00
10:53 PM,60.1,48.9,67,30.19,10.0,Calm,Calm,-,N/A,,Mostly Cloudy,0,2012-04-08 02:53:00
11:53 PM,60.1,46.9,62,30.17,10.0,Calm,Calm,-,N/A,,Mostly Cloudy,0,2012-04-08 03:53:00